Tracking 30970 objects as of 3-Jul-2025
HD Live streaming from Space Station
objects crossing your sky now

ATLAS 5 CENTAUR DEB

Track ATLAS 5 CENTAUR DEB now!


NORAD ID: 44691
Int'l Code: 2018-079BD
Perigee: 9,606.1 km
Apogee: 35,430.2 km
Inclination: 12.6 °
Period: 814.4 minutes
Semi major axis: 28889 km
RCS: Unknown
Launch date: October 17, 2018
Source: United States (US)
Launch site: AIR FORCE EASTERN TEST RANGE (AFETR)

Note: This is SATELLITE DEBRIS
Your satellite tracking list
Your tracking list is empty




NASA's NSSDC Master Catalog

Two Line Element Set (TLE):
1 44691U 18079BD  25177.50129630 -.00000134  00000-0  00000+0 0  9995
2 44691  12.6484  82.6605 4469526 215.0715 104.9849  1.76807431 37894
Source of the keplerian elements: AFSPC